Regional Weather Roundup
Issued by NWS Sterling, VA

Home | Current Version | Previous Version | Graphics & Text | Print | Product List | Glossary On
Versions: 1 2 3 4 5 6 7 8 9 10 11 12 13 14 15 16 17 18 19 20 21 22 23 24 25 26 27
000
ASUS41 KLWX 221811
RWRLWX

REGIONAL WEATHER ROUNDUP
NATIONAL WEATHER SERVICE BALTIMORE MD/WASHINGTON DC
200 PM EDT FRI SEP 22 2017

Note: "FAIR" indicates few or no clouds below 12,000 feet
with no significant weather and/or obstructions to visibility.
 TC=TEMPERATURE CELSIUS

 * =Non NWS site. Station does not report precipitation (e.g. rain,
    snow, etc.), thunder, or fog.

DCZ001-MDZ009-015-VAZ040>042-051-053>054-221900-
WASHINGTON METRO

CITY           SKY/WX    TMP DP  RH WIND       PRES   REMARKS
WASHINGTON NAT CLOUDY    83  67  58 NW10      30.03F
DULLES         CLOUDY    82  62  50 N12       30.04F
ANDREWS AFB    PTSUNNY   81  60  50 NW12      30.02F
FT BELVOIR     CLOUDY    82  64  53 NW9       30.03F
QUANTICO       CLOUDY    82  65  56 NW7       30.04F
COLLEGE PARK*  PTSUNNY   80  64  59 NW5       30.03F
LEESBURG*      CLOUDY    82  66  57 N6        30.06F
MANASSAS*      MOSUNNY   83  65  54 VRB6      30.04F
GAITHERSBURG*  MOSUNNY   79  66  64 NW6       30.07F

$$

MDZ006>007-011-014-221900-
BALTIMORE METRO

CITY           SKY/WX    TMP DP  RH WIND       PRES   REMARKS
BWI AIRPORT    CLOUDY    80  67  64 NW8       30.02F
MD SCIENCE CTR   N/A     82  63  52 MISG      30.03F
MARTIN STATE   PTSUNNY   81  70  69 NW7       30.04F
ANNAPOLIS      CLOUDY    82  68  62 NW5       30.02F
FORT MEADE*    PTSUNNY   79  64  61 NW8       30.05F

$$

MDZ012-015-019>023-221900-
MARYLAND EASTERN SHORE

CITY           SKY/WX    TMP DP  RH WIND       PRES   REMARKS
OCEAN CITY     MOSUNNY   77  58  51 NW3       29.99F
SALISBURY      CLOUDY    81  63  54 NW13G21   29.99F
CAMBRIDGE*     SUNNY     77  64  65 NW10      30.02F
EASTON*        CLOUDY    77  64  65 N8        30.05F

$$

MDZ017>025-221900-
SOUTHERN MARYLAND

CITY           SKY/WX    TMP DP  RH WIND       PRES   REMARKS
PATUXENT RIVER CLOUDY    81  65  58 N8        30.02F
ST INIGOES     PTSUNNY   82  64  54 VRB6      30.01F
LEONARDTOWN*   CLOUDY    79  64  61 NW7       30.04F

$$

MDZ003>005-221900-
NORTH CENTRAL MARYLAND

CITY           SKY/WX    TMP DP  RH WIND       PRES   REMARKS
FREDERICK*     PTSUNNY   82  63  51 CALM      30.08F
HAGERSTOWN APT MOSUNNY   84  60  44 NE8       30.06F
WESTMINSTER*   CLOUDY    79  66  65 NW3       30.07F

$$

MDZ501>502-221900-
WESTERN MARYLAND

CITY           SKY/WX    TMP DP  RH WIND       PRES   REMARKS
OAKLAND*       SUNNY     73  55  53 NW5       30.18S
CUMBERLAND*    SUNNY     88  59  37 NE3       30.10F

$$

VAZ025>031-221900-
SHENANDOAH VALLEY

CITY           SKY/WX    TMP DP  RH WIND       PRES   REMARKS
WINCHESTER*    CLOUDY    79  63  57 N3        30.06F
FRONT ROYAL*   CLOUDY    81  63  54 CALM      30.06F
LURAY*         MOSUNNY   84  61  45 CALM      30.07F
NEW MARKET*    PTSUNNY   85  58  40 CALM      30.05F
STAUNTON*      PTSUNNY   82  60  47 CALM      30.11F
WAYNESBORO*    CLOUDY    81  61  50 N5        30.11F

$$

WVZ021-048>050-054>055-221900-
EASTERN WEST VIRGINIA PANHANDLE

CITY           SKY/WX    TMP DP  RH WIND       PRES   REMARKS
MARTINSBURG    CLOUDY    82  60  47 NW8       30.05F
PETERSBURG*    PTSUNNY   86  62  43 CALM      30.07F

$$

VAZ036>039-050-221900-
CENTRAL FOOTHILLS

CITY           SKY/WX    TMP DP  RH WIND       PRES   REMARKS
CHARLOTTESVILL PTSUNNY   85  64  49 CALM      30.05F
CULPEPER*      PTSUNNY   84  66  54 N5        30.05F
ORANGE*        PTSUNNY   81  64  57 NW5       30.05F
GORDONSVILLE*  MOSUNNY   84  66  55 NE6       30.05F
WARRENTON*     PTSUNNY   85  60  41 N10       30.05F

$$

VAZ055>057-221900-
NORTH AND CENTRAL PIEDMONT

CITY           SKY/WX    TMP DP  RH WIND       PRES   REMARKS
FREDERICKSBRG* MOSUNNY   83  66  55 NW6       30.03F
STAFFORD*      CLOUDY    81  63  54 N7        30.08F

$$

NCZ024-NYZ072-PAZ021-071-VAZ022-071-221900-
OTHER REGIONAL OBSERVATIONS

CITY           SKY/WX    TMP DP  RH WIND       PRES   REMARKS
NEW YORK CITY  MOSUNNY   82  56  40 N10       29.99F
PHILADELPHIA   CLOUDY    80  55  42 NW10      29.99F
PITTSBURGH     PTSUNNY   85  56  37 N5        30.12F
ROANOKE        MOSUNNY   85  62  46 VRB3      30.10F
RICHMOND       PTSUNNY   82  66  58 NE10      30.03F
RALEIGH        MOSUNNY   84  63  49 NE8       30.05F

$$

ANZ530>537-221900-
MARINE OBSERVATIONS

STATION/POSITION TIME  TEMP    WIND        PRES
                       AIR SEA DIR/SP/G
                 (UTC) (F)     (DEG/KT/KT) (MB)
THOMAS PT LIGHT  1800   75 76   60/  3/  3   N/A
BALT KEY BRIDGE  1742   79     320/ 10/ 11 1016.5F
COVE POINT       1742   75      10/  3/  5 1017.4F
LEWISETTA        1742   78 77  320/  6/  7 1016.6F
SOLOMONS ISLAND  1742   78 77  320/  6/ 10 1016.3F
PINEY POINT      1742          320/  8/  9   N/A

$$





USA.gov is the U.S. government's official web portal to all federal, state and local government web resources and services.